Flag for U.S.A. Weather past 2 weeks in Youngstown, Ohio, U.S.A.

Now
28 °F

Light snow. Overcast.


Feels Like: 19 °F
Forecast: 28 / 33 °F
Wind: 9 mph from West

Location: Youngstown-Warren Regional Airport

Current Time: Dec 18, 2014 at 8:31:10 AM

Latest Report: Dec 18, 2014 at 7:51 AM


Visibility: 9 mi

Pressure: 30.19 "Hg

Humidity: 75%

Dew point: 21 °F

Location of YoungstownLocation

Historic Weather in Youngstown — Graph

°F

Youngstown temperature yesterday

Maximum temperature yesterday: 42 °F (at 12:51 AM)
Minimum temperature yesterday: 28 °F (at 10:51 PM)
Average temperature yesterday: 33 °F

Past Weeks' High & Low Weather Summary

 TemperatureHumidityPressure
High50 °F (Dec 16, 12:51 PM)100% (Dec 5, 11:51 PM)30.66 "Hg (Dec 5, 11:51 PM)
Low25 °F (Dec 4, 1:51 AM)34% (Dec 8, 11:51 AM)29.71 "Hg (Dec 16, 1:51 PM)
Average35 °F80%30.16 "Hg
* Reported Dec 3 6:51 AM — Dec 18 6:51 AM, Youngstown, Weather by CustomWeather, © 2014

Note: Actual official high and low records may vary slightly from our data, if they occured in-between our weather recording intervals... More about our weather records

Advertising

Youngstown weather history for previous 24 hours

 ConditionsComfort  
Time TempWeatherWind HumidityBarometerVisibility
6:51 AM
Dec 18
28 °FOvercast.10 mph75%30.19 "Hg10 mi
5:51 AM28 °FOvercast.12 mph72%30.19 "Hg10 mi
4:51 AM28 °FOvercast.7 mph69%30.18 "Hg10 mi
3:51 AM28 °FLight snow. Overcast.10 mph69%30.19 "Hg9 mi
2:51 AM28 °FLight snow. Overcast.13 mph75%30.19 "Hg9 mi
1:51 AM28 °FLight snow. Mostly cloudy.10 mph78%30.17 "Hg9 mi
12:51 AM28 °FLight snow. Mostly cloudy.12 mph75%30.16 "Hg7 mi
11:51 PM
Dec 17
28 °FLight snow. Mostly cloudy.16 mph72%30.14 "Hg9 mi
10:51 PM28 °FLight snow. Overcast.13 mph72%30.14 "Hg9 mi
9:51 PM29 °FLight snow. Mostly cloudy.12 mph69%30.14 "Hg9 mi
8:51 PM29 °FLight freezing rain. Overcast.14 mph75%30.14 "Hg9 mi
7:51 PM29 °FMostly cloudy.18 mph72%30.12 "Hg10 mi
6:51 PM30 °FOvercast.15 mph72%30.11 "Hg10 mi
5:51 PM30 °FLight snow. Overcast.10 mph72%30.10 "Hg9 mi
4:51 PM30 °FLight snow. Overcast.10 mph72%30.09 "Hg9 mi
3:51 PM31 °FLight snow. Overcast.13 mph73%30.09 "Hg10 mi
2:51 PM31 °FOvercast.17 mph76%30.07 "Hg10 mi
1:51 PM32 °FOvercast.16 mph69%30.06 "Hg9 mi
12:51 PM32 °FLight snow. More clouds than sun.13 mph75%30.06 "Hg9 mi
11:51 AM32 °FLight snow. Overcast.12 mph79%30.07 "Hg9 mi
10:51 AM32 °FLight snow. Low clouds.15 mph82%30.07 "Hg9 mi
9:51 AM33 °FLight snow. Fog.17 mph88%30.05 "Hg3 mi
9:03 AM34 °FLight snow. Fog.16 mph88%30.01 "Hg1 mi
8:51 AM34 °FLight snow. Fog.14 mph88%30.03 "Hg5 mi
Weather by CustomWeather, © 2014

See weather overviewHow to use our weather pages